Weather in Kobe

Japan     34°45′28″N   135°07′15″E
temp.,
°C
wind,
m/s
gust,
m/s
humid.,
%
clouds,
%
prec.,
mm/h
press.,
hPa
HPBL,
m
20 january, wed
wed2000:00+1nne37690 0.0 1031557
03:00+1nne35730 0.0 1031403
06:000ne27720 0.0 1032523
09:00+2nne37600 0.0 1032680
12:00+6n34460 0.0 1031869
15:00+8n22430 0.0 1029888
18:00+6nne23510 0.0 1030297
21:00+5ne11580 0.0 103049
21 january, thu
thu2100:00+4nnw00610 0.0 103030
03:00+4nne11640 0.0 102929
06:00+3ese11670 0.0 102923
09:00+5ese11620 0.0 102882
12:00+9sw23510 0.0 1027563
15:00+11sw22450 0.0 1024470
18:00+9ssw11520 0.0 102424
21:00+8sse11560 0.0 102324
22 january, fri
fri2200:00+8se127490 0.0 102349
03:00+9se348695 0.0 1021124
06:00+9se2488100 0.0 101897
09:00+9wsw1190100 0.4 101849
12:00+9wnw1388100 0.6 1018200
15:00+10wsw2484100 0.8 1016307
18:00+10wnw119187 0.0 101845
21:00+9ne229379 0.0 101947
23 january, sat
sat2300:00+8ne4109210 0.0 1019313
03:00+8nne3119035 0.0 1019512
06:00+8ne512850 0.0 1019451
09:00+9nne611710 0.0 1020569
12:00+11ne6961100 0.0 1018730
15:00+10nne597299 0.3 1016574
18:00+8nne51083100 2.5 1016351
21:00+9nne5985100 7.2 1014458
24 january, sun
sun2400:00+8nne61386100 7.2 1012511
03:00+8nne91686100 17.4 1011779
06:00+8nne101780100 10.0 1011803
09:00+8n81579100 13.4 10141070
12:00+9n91569100 0.5 10141355
15:00+9nnw8156795 0.6 10161416
18:00+8nnw7156795 0.0 10181482
21:00+8nnw5127192 0.1 10221432